GFSSW_500_rhum_231.txt.gz
RH
4 4 5 5 5 5 5 4 3 3 6 12 24 32 60 72 78 70 67 58 53 45 18 9 5 4 5 7 9 10 10 13 14 14 29 14 19 25 28 62 20 18 17 8 9
3 3 3 3 3 3 4 4 4 4 4 3 4 8 16 28 34 53 76 80 68 53 48 46 25 8 4 4 6 8 9 10 13 23 27 16 14 21 27 21 18 14 17 12 6
3 3 3 3 3 2 3 3 3 3 4 4 4 4 3 3 6 30 36 71 76 74 67 57 53 39 10 4 4 5 7 9 10 12 12 12 12 14 26 20 13 18 18 12 9
3 3 2 2 2 2 2 2 2 2 2 2 3 3 4 4 3 4 8 24 52 69 76 73 54 62 37 10 5 4 4 7 8 9 10 13 12 12 15 16 28 12 10 14 14
2 2 2 2 2 2 2 2 2 2 2 2 2 2 2 3 3 4 3 4 14 30 51 65 81 69 59 50 14 5 4 4 6 8 10 10 11 10 12 14 11 13 10 13 14
4 3 3 3 3 3 3 2 2 2 2 2 2 2 2 2 3 3 3 3 3 6 20 32 47 64 71 67 55 20 6 4 4 5 7 9 10 10 10 12 13 11 12 11 10
4 4 4 4 4 4 4 4 3 3 3 2 2 2 2 2 2 2 3 3 3 3 3 11 24 31 45 63 78 56 22 6 4 3 5 6 8 10 9 10 9 11 12 10 10
5 5 5 5 5 4 4 3 3 3 3 3 3 3 3 2 2 2 2 2 3 3 2 3 6 18 28 38 62 70 39 16 6 4 3 4 6 7 8 10 9 9 10 10 10
6 6 6 6 6 5 5 4 3 3 3 3 2 2 2 2 3 3 2 2 2 3 4 3 3 4 13 28 40 71 67 38 23 14 4 4 4 5 7 8 10 10 10 10 10
7 6 6 6 6 6 5 4 3 3 3 3 2 2 2 2 2 3 3 3 2 2 3 4 3 3 3 9 25 43 60 62 40 41 29 12 3 4 5 6 7 8 9 9 8
8 8 7 6 6 5 5 4 4 4 3 3 3 3 3 4 4 7 4 4 4 3 2 3 4 4 3 3 5 22 42 58 72 71 43 35 19 5 4 6 6 6 6 6 6
10 9 8 6 6 5 5 5 5 4 4 4 4 4 7 8 7 6 7 6 6 5 4 3 3 4 4 3 3 4 18 38 63 80 54 43 41 23 5 4 6 6 6 6 6
11 10 9 7 6 6 6 6 6 5 5 5 5 6 7 7 6 5 5 5 5 6 6 5 3 3 4 5 3 3 4 18 44 58 75 71 48 43 19 4 4 6 6 6 6
12 11 11 11 10 8 8 7 7 6 6 7 7 8 8 6 5 5 6 6 5 5 6 7 5 3 4 6 7 3 3 4 12 24 62 72 72 53 42 19 6 4 5 6 6
13 13 13 13 12 12 11 10 9 9 8 8 8 9 10 6 4 28 13 7 6 6 13 11 17 5 4 5 10 6 5 4 4 6 20 47 67 57 51 48 27 8 4 5 6
12 12 12 14 15 14 13 13 11 10 10 10 10 13 11 11 75 65 97 24 14 8 7 12 82 58 6 6 16 15 16 7 4 4 42 16 26 45 55 49 49 29 10 4 4
15 14 14 14 16 16 16 15 14 13 11 11 13 18 14 12 53 82 90 94 34 13 8 7 15 42 25 7 8 40 83 74 57 18 4 6 6 32 37 41 45 44 31 11 4
19 18 17 17 18 19 19 18 18 16 14 12 15 22 17 14 39 74 100 89 100 61 98 59 16 22 23 12 10 10 19 30 95 89 14 4 5 7 29 28 34 43 41 30 11
23 23 22 21 21 20 21 21 21 20 17 13 17 25 22 20 32 87 97 100 94 95 92 100 94 72 39 25 14 20 100 12 34 90 92 76 70 10 5 13 15 28 40 39 31
26 28 26 24 25 24 23 24 23 23 20 15 15 28 30 18 22 56 57 99 100 80 79 69 85 100 99 88 20 13 42 100 99 98 89 93 86 71 26 6 7 12 23 41 38
34 33 30 28 26 27 27 26 27 26 24 19 15 18 34 27 20 22 40 77 99 100 99 95 60 49 88 90 100 85 18 38 100 100 84 65 82 61 66 79 22 10 8 12 28
38 39 34 32 31 30 31 28 31 29 28 24 19 16 28 40 31 19 22 58 36 93 100 100 99 80 58 100 99 100 100 97 86 73 100 100 93 65 89 57 84 95 39 8 7
42 42 40 37 36 35 35 31 32 32 32 29 24 20 19 31 35 25 22 30 27 39 73 100 99 87 81 44 48 100 76 100 100 96 94 98 100 96 46 52 81 96 53 17 4
49 46 46 42 40 38 38 36 31 29 33 34 28 24 20 19 22 37 38 17 31 22 32 61 88 100 71 98 100 100 70 86 100 99 95 96 100 100 100 100 100 99 99 72 8
49 51 52 51 47 44 39 39 36 30 32 32 32 28 24 19 18 33 51 39 13 36 29 38 52 78 100 60 92 100 99 65 43 76 78 66 94 62 59 64 37 15 9 5 5
43 49 56 57 51 48 39 40 40 37 32 34 35 32 27 22 19 14 30 55 39 15 32 47 44 67 60 98 100 90 100 90 74 43 36 38 74 100 54 40 40 29 18 13 7
32 44 51 57 59 54 47 41 39 40 38 32 34 37 32 27 23 18 17 45 52 32 11 21 38 32 28 53 76 94 80 100 100 83 78 80 72 27 41 25 19 17 16 18 18

GFSSW_500_rhum_234.txt.gz
RH
6 6 6 6 5 5 4 4 4 4 6 9 13 27 31 33 58 75 76 62 54 58 52 22 7 5 5 6 8 9 10 12 12 12 25 32 35 33 25 54 87 33 20 10 6
4 5 4 4 4 4 5 5 5 6 5 4 4 5 9 20 26 35 71 79 63 61 60 52 30 13 5 4 5 7 8 10 12 15 25 28 34 33 22 29 50 31 18 17 12
4 4 3 3 3 3 3 3 3 3 4 5 6 6 5 4 4 15 28 49 64 70 66 64 55 36 16 8 5 5 6 8 9 12 21 25 34 32 19 21 39 23 14 21 16
3 3 3 3 3 2 2 2 2 2 2 2 3 4 6 6 5 5 3 7 18 31 47 71 68 68 46 33 19 6 4 5 7 9 11 16 26 13 15 14 40 47 9 13 15
3 3 3 2 2 2 2 2 2 2 2 2 2 2 2 2 4 7 6 5 4 4 16 33 48 62 72 66 47 27 8 4 4 6 9 10 12 12 12 12 24 64 12 9 13
4 4 4 3 3 3 2 2 2 2 2 2 2 2 2 2 1 1 2 4 6 5 3 6 27 51 58 68 61 49 36 8 4 4 5 7 9 10 10 11 16 18 20 7 9
5 5 4 4 3 4 4 4 4 3 3 2 2 2 2 2 2 2 2 1 2 3 5 4 3 11 31 39 71 68 62 38 7 4 4 4 6 8 9 10 11 13 16 11 9
5 5 5 4 4 4 4 4 3 3 3 3 2 2 2 2 2 2 2 2 2 1 2 3 4 3 6 20 33 71 72 65 40 18 5 5 4 4 7 9 10 10 11 14 10
6 5 5 5 5 4 4 4 3 3 3 2 2 2 2 2 2 2 2 2 2 2 2 2 3 4 3 4 10 26 45 61 58 60 31 12 4 4 4 6 7 9 10 10 11
6 6 6 6 5 5 4 4 3 3 3 2 2 2 2 2 2 2 2 2 2 2 2 2 2 2 4 3 4 7 18 31 41 53 61 47 13 5 4 4 5 6 8 9 10
9 8 7 7 7 6 5 4 4 4 3 3 2 2 3 3 2 3 2 2 2 2 2 2 2 2 2 4 3 3 4 12 22 46 55 73 45 23 9 4 4 4 6 7 7
11 10 9 8 8 7 6 5 5 4 4 4 4 3 4 3 3 3 3 3 3 3 3 3 3 2 2 2 3 3 3 3 7 22 48 78 95 71 59 16 10 4 4 5 7
10 10 11 10 10 9 8 7 6 5 6 6 5 4 4 4 3 3 3 3 4 4 5 5 5 5 4 3 3 4 4 3 3 12 33 76 82 82 68 57 33 12 4 12 5
8 8 7 8 9 9 10 8 7 6 6 7 6 5 5 4 4 4 4 4 4 3 4 5 5 6 6 5 4 3 4 5 3 4 10 44 70 67 74 60 40 34 8 5 4
9 9 8 8 8 8 9 10 10 9 9 9 8 7 6 5 5 6 5 11 28 16 6 4 6 6 18 9 8 3 4 16 6 5 4 13 72 37 52 72 74 48 36 11 6
10 10 10 10 10 9 9 11 11 11 11 11 10 8 8 7 6 6 6 32 42 61 10 6 8 9 34 95 58 20 71 18 43 89 32 4 21 17 25 42 74 77 56 42 18
13 12 13 14 13 12 11 12 13 13 13 12 12 10 9 8 8 9 8 61 61 80 84 73 10 31 17 100 82 89 100 99 88 100 78 4 6 5 14 27 50 69 72 57 52
18 16 16 17 16 15 15 13 14 14 15 15 14 12 11 9 10 14 12 30 76 72 95 74 96 28 100 100 99 100 90 92 100 95 82 32 38 4 4 11 28 53 91 87 58
22 21 20 21 20 19 17 16 17 16 16 17 17 14 14 12 11 15 16 19 81 57 73 98 77 90 42 100 100 94 98 74 100 100 100 96 89 36 8 6 8 43 57 53 83
24 24 25 26 25 24 22 20 20 19 17 19 20 17 16 15 12 13 22 24 33 85 82 69 68 83 79 95 74 92 94 100 100 100 99 80 85 96 79 46 43 13 32 50 48
25 26 27 29 30 29 28 25 22 21 21 19 22 22 19 18 15 12 22 37 23 34 65 97 70 84 87 86 65 74 83 75 98 100 98 72 72 75 89 99 90 83 49 36 30
30 28 32 35 35 34 34 31 28 25 24 22 22 25 23 20 19 14 15 29 24 17 37 65 92 58 81 70 75 95 100 98 71 70 100 100 86 61 70 100 100 93 98 94 84
27 27 28 31 40 40 40 37 35 30 29 27 25 27 29 25 21 18 15 20 38 30 14 18 50 75 49 73 74 92 100 100 100 95 32 78 86 98 67 58 97 100 98 95 99
11 18 20 23 32 39 43 43 36 36 33 30 29 27 29 30 25 22 19 13 12 39 20 16 13 27 64 65 100 93 40 66 95 100 100 96 56 50 93 96 73 99 99 100 95
11 12 12 15 26 32 37 44 42 38 33 32 32 31 27 31 31 27 22 16 12 21 41 21 15 66 27 51 73 100 92 71 38 48 97 83 100 93 61 63 91 80 75 83 99
10 10 11 9 10 25 30 43 46 44 41 36 35 34 30 29 29 29 25 20 12 13 32 41 25 18 14 28 43 67 50 47 60 76 63 32 41 66 74 74 69 100 99 82 71
9 9 10 13 13 15 24 35 48 48 49 40 37 38 34 32 30 32 28 24 17 11 24 38 42 24 16 19 18 24 46 68 72 94 90 65 42 35 49 67 83 88 94 96 100

GFSSW_500_rhum_237.txt.gz
RH
6 6 6 6 6 5 5 5 5 6 7 9 13 18 39 37 30 60 73 56 48 46 54 57 40 16 5 5 7 8 10 10 10 9 35 35 55 51 41 38 52 54 44 16 10
7 7 6 6 6 6 6 5 5 5 5 4 4 6 10 18 35 32 44 56 64 57 46 54 57 56 31 8 5 6 8 10 11 12 24 34 37 35 48 35 37 58 30 16 23
7 6 6 5 5 5 5 5 5 5 5 6 6 7 6 5 8 18 20 28 36 44 54 65 58 60 54 39 10 6 6 6 9 10 12 20 30 30 34 35 34 26 20 16 26
5 4 4 4 3 3 3 3 3 3 2 3 3 4 5 6 7 6 5 6 9 15 23 37 67 63 56 53 40 16 6 5 5 8 10 11 15 23 22 19 47 37 24 15 18
4 4 3 3 3 3 2 2 2 2 2 2 2 1 1 1 3 4 6 6 6 5 4 6 17 38 54 55 58 34 24 10 5 5 8 10 11 14 14 15 34 44 18 11 11
3 3 2 2 3 2 3 2 2 2 2 2 2 2 2 1 1 1 1 1 2 4 6 5 4 4 14 28 53 59 42 33 14 6 5 7 9 11 12 12 19 26 21 8 9
5 5 4 4 4 3 3 3 3 3 3 3 2 2 2 2 2 2 1 1 1 1 1 2 5 6 4 4 19 44 52 51 35 14 9 5 5 8 12 11 12 26 16 10 10
5 5 5 5 4 4 4 4 4 3 3 3 2 2 2 2 2 2 2 2 2 2 1 1 1 2 6 6 4 6 21 35 51 52 33 15 5 4 7 13 9 12 22 10 9
6 6 6 5 5 5 5 4 4 3 3 2 2 2 2 2 2 2 2 2 2 1 1 1 2 1 1 3 5 5 5 7 23 54 58 49 12 9 5 4 6 8 12 11 9
7 7 6 6 6 6 5 5 4 3 3 3 3 3 3 3 2 2 2 2 2 2 2 2 2 1 1 1 1 4 5 5 5 22 49 60 41 41 50 17 4 4 6 8 8
10 9 8 8 7 6 6 5 5 4 3 4 4 4 4 4 4 3 2 2 2 2 2 2 2 1 1 1 1 1 2 5 5 5 30 64 66 57 60 68 57 6 4 5 6
10 10 10 9 9 8 8 7 6 6 5 5 5 5 5 4 4 3 3 2 2 2 2 2 1 1 1 2 2 2 1 2 5 3 5 24 39 40 64 58 58 54 9 4 4
8 7 7 6 6 6 7 7 7 7 7 6 6 6 6 5 4 4 3 2 2 2 2 1 1 2 2 2 3 2 2 1 2 4 4 4 12 27 38 58 55 53 35 8 4
9 8 8 7 7 6 6 5 5 6 7 8 7 6 5 5 5 4 3 2 2 2 2 2 2 2 2 3 5 3 4 4 2 3 4 6 5 8 22 28 51 59 51 26 23
10 9 9 9 9 9 8 6 6 5 6 8 8 8 7 6 6 4 3 3 3 3 3 9 14 8 4 4 9 10 5 7 5 5 3 7 8 5 12 13 31 53 60 46 41
13 11 10 11 12 11 10 9 8 7 8 9 10 9 8 8 7 5 4 4 3 4 5 15 37 40 5 13 6 10 20 17 16 30 13 4 10 5 24 10 19 37 45 59 75
16 15 15 14 16 15 13 12 11 11 10 10 11 11 10 10 8 6 5 5 4 4 6 15 57 51 11 51 29 71 75 46 67 92 95 8 36 6 5 12 22 40 70 76 70
19 19 18 17 18 18 16 14 15 12 12 12 12 12 12 11 10 8 6 7 6 6 9 17 28 94 91 100 67 100 100 100 99 100 59 34 98 31 5 8 9 18 28 74 76
20 20 20 19 20 21 19 17 16 15 13 14 14 13 14 14 12 10 8 8 8 7 9 15 29 61 91 91 94 61 78 99 100 98 94 99 80 48 27 15 10 36 38 47 78
23 22 22 22 25 25 24 22 20 18 17 14 15 14 14 16 16 12 10 9 10 8 13 19 27 57 69 54 99 100 99 100 94 93 92 92 98 96 69 40 27 29 49 62 79
22 24 25 26 25 27 28 27 25 22 21 18 16 17 16 17 19 16 14 11 11 10 9 17 28 47 51 82 50 95 83 100 100 99 100 91 73 98 87 78 86 90 94 47 41
16 15 19 20 20 21 25 30 29 28 26 24 21 19 17 18 20 21 18 15 12 12 9 13 20 15 46 69 81 89 68 83 76 79 83 93 65 79 100 100 99 100 78 96 62
11 9 10 11 17 18 17 22 29 33 33 29 26 24 19 20 20 24 22 20 16 14 11 9 18 19 33 60 80 84 92 100 100 100 100 100 52 86 91 99 100 98 97 99 94
11 10 11 11 10 11 14 19 21 29 36 36 31 30 26 22 22 21 24 23 20 17 14 11 11 26 19 25 48 60 76 99 98 96 98 99 50 77 80 86 100 100 91 100 100
11 12 12 11 10 9 14 19 19 24 33 42 37 35 31 26 25 26 24 26 25 20 17 14 12 14 28 18 18 25 33 73 95 82 82 77 84 58 83 100 100 100 100 100 100
11 10 10 10 10 9 10 19 18 15 28 37 40 39 37 32 25 24 26 25 27 26 21 18 14 12 22 31 19 11 16 35 43 53 60 49 52 45 64 97 100 100 100 100 98
9 8 8 8 9 10 10 14 17 15 16 33 41 41 44 37 32 28 26 27 25 26 26 22 18 16 17 24 27 25 15 14 13 15 35 61 52 53 47 56 82 98 100 100 92

GFSSW_500_rhum_243.txt.gz
RH
9 16 23 29 35 38 37 35 34 34 33 34 40 39 34 48 52 66 40 40 52 49 27 13 6 6 5 6 8 9 10 11 12 13 37 34 36 41 49 39 38 17 32 27 25
8 8 12 16 14 14 17 16 14 13 16 15 19 24 25 25 27 36 53 53 34 46 48 46 17 8 9 6 6 7 9 10 11 11 12 28 28 40 44 53 41 21 19 14 17
9 6 6 7 8 8 8 7 6 7 7 10 8 11 14 15 16 16 19 22 32 44 41 42 44 22 17 18 12 5 6 7 8 10 11 25 28 31 38 47 60 31 22 14 12
11 9 8 6 6 6 6 6 6 6 6 5 5 5 5 5 5 5 8 14 15 19 26 39 40 43 40 41 43 25 14 8 7 7 8 11 13 15 21 35 42 44 30 18 17
10 9 8 8 7 7 7 7 6 6 6 6 6 6 7 7 6 6 7 6 6 6 6 12 17 23 31 36 45 44 42 25 12 9 7 10 9 12 15 24 32 37 32 22 14
8 8 8 8 7 7 6 5 4 4 4 4 4 4 4 6 5 5 7 7 7 8 7 7 5 6 8 13 15 18 23 40 35 35 18 7 9 8 11 19 25 28 34 27 20
4 4 4 3 3 3 3 2 2 2 2 2 2 2 2 2 2 2 2 2 2 2 3 5 6 7 7 6 6 6 7 8 15 34 41 23 6 11 8 9 23 21 31 26 17
4 3 3 3 3 3 3 3 2 3 2 2 2 2 2 2 2 2 1 1 1 1 1 1 1 1 1 1 3 6 8 7 6 8 42 51 17 20 8 7 10 34 16 32 18
5 5 4 4 4 4 4 4 4 4 3 3 2 2 2 2 2 2 2 2 2 2 2 2 2 1 1 1 1 1 1 3 5 6 7 26 30 41 33 10 6 15 58 16 27
6 6 6 6 5 5 5 5 5 4 4 4 2 2 2 2 2 2 2 2 2 2 2 2 2 2 2 1 1 1 1 1 1 1 3 6 8 18 44 44 20 6 12 48 14
8 8 8 8 7 7 6 6 6 5 5 4 4 3 3 3 3 3 3 3 3 3 3 3 3 2 2 2 2 1 1 1 1 1 1 1 4 6 8 38 46 31 8 7 37
11 11 10 9 8 8 8 7 7 6 5 5 5 4 4 4 3 4 4 4 4 4 4 3 3 3 2 2 2 2 2 1 1 1 1 1 1 1 6 7 41 50 39 18 8
12 10 9 8 7 7 6 6 5 5 6 6 6 5 5 4 4 5 5 5 5 5 4 4 3 2 2 2 1 1 1 1 1 1 1 1 1 1 1 4 9 42 51 52 30
9 9 8 8 7 7 6 6 6 6 5 5 5 7 6 7 7 7 6 6 6 5 4 4 3 2 2 2 2 1 1 1 1 1 1 1 1 1 1 1 3 7 31 48 59
11 10 10 9 9 9 10 10 8 8 8 8 7 7 7 8 8 7 7 6 6 5 4 3 2 2 2 2 2 2 1 1 1 1 1 1 1 1 1 1 1 2 5 13 44
12 12 11 10 10 12 12 12 11 10 10 8 8 8 7 7 8 7 7 6 6 6 4 4 3 2 2 3 2 2 1 2 2 2 1 2 4 1 1 1 2 2 3 4 6
16 15 14 12 12 13 15 15 13 12 10 10 9 9 8 8 8 7 6 7 7 7 7 5 4 4 3 3 4 3 3 5 20 44 33 44 6 4 7 9 6 4 3 4 6
20 19 18 17 17 16 16 17 15 14 12 11 10 10 9 8 8 8 7 8 7 7 8 7 5 5 4 4 5 3 4 19 52 52 66 100 43 66 58 42 55 7 8 6 10
20 21 20 19 18 18 19 20 19 17 15 13 11 11 10 10 8 8 8 8 8 8 8 9 7 6 5 6 6 5 9 27 61 94 49 87 99 100 100 100 58 97 13 8 15
23 23 24 22 20 19 21 24 23 21 18 16 13 12 12 11 10 9 9 9 8 8 8 9 10 9 8 9 8 6 10 25 52 79 80 82 98 94 96 95 98 63 52 18 14
26 26 26 26 23 22 24 23 23 22 23 20 18 15 15 14 12 12 12 11 10 10 10 9 11 10 8 10 10 9 12 18 34 61 73 96 100 100 100 94 88 98 52 29 21
30 26 32 28 26 26 23 20 19 20 23 23 23 20 18 17 15 13 13 13 12 12 12 13 12 12 10 12 12 11 10 12 34 38 40 46 67 91 86 100 70 100 100 95 36
28 28 29 30 27 25 20 17 16 18 26 26 25 23 22 23 22 17 15 15 14 13 13 14 13 13 12 13 14 13 11 11 12 32 58 84 63 100 87 86 75 98 100 100 100
30 26 24 24 24 20 14 13 13 11 17 23 21 20 21 20 21 23 20 18 17 15 16 16 16 15 14 15 17 16 13 12 10 12 19 42 57 81 81 71 66 90 98 100 99
29 26 25 22 18 19 14 10 10 10 10 13 18 18 22 27 25 24 26 24 23 19 18 20 20 17 16 16 17 17 17 15 14 17 13 16 24 27 34 41 53 65 75 90 99
32 28 26 25 21 18 16 13 11 10 9 9 10 12 18 22 19 22 26 30 31 26 22 21 23 21 20 18 16 17 19 19 18 17 19 21 15 14 20 27 29 37 44 47 66
36 34 29 23 20 19 17 15 13 12 10 10 10 10 11 14 13 12 13 18 28 34 27 24 23 23 21 21 17 18 20 23 22 19 18 19 21 23 19 14 13 14 19 27 25

GFSSW_500_rhum_246.txt.gz
RH
21 20 29 39 44 44 38 37 38 40 54 54 56 51 54 58 55 66 70 58 49 32 23 9 9 6 5 6 8 9 10 11 12 13 18 27 36 52 52 38 31 36 27 16 17
15 14 17 29 41 45 45 40 36 37 37 35 35 37 49 44 44 52 62 65 50 42 48 40 36 21 7 5 5 7 9 9 10 12 12 24 36 36 40 42 34 28 32 23 18
13 11 10 16 23 26 34 37 36 33 30 26 28 30 30 34 28 30 38 49 58 50 34 43 53 49 31 11 7 6 6 7 8 10 11 13 23 22 22 29 33 30 28 25 16
14 9 8 9 13 15 14 12 14 15 12 10 9 11 10 13 12 16 17 18 26 32 45 44 41 38 45 36 17 10 8 7 8 7 9 10 12 13 17 26 34 33 25 24 20
14 13 9 7 7 8 8 8 8 7 7 6 6 6 6 6 7 9 9 7 11 17 18 20 40 41 46 43 36 28 20 25 19 18 8 8 9 10 14 18 30 29 26 27 23
14 12 11 10 8 7 7 6 6 6 6 6 6 6 6 6 6 5 5 5 5 5 6 6 7 11 25 27 29 42 41 44 41 43 35 8 7 10 8 10 14 16 27 25 24
14 13 11 10 9 9 8 7 7 6 6 6 5 5 6 6 6 7 7 8 7 7 7 7 7 6 6 7 8 12 22 28 36 36 34 31 10 8 9 9 8 11 13 24 32
8 7 7 7 7 6 6 5 4 4 3 3 2 2 3 3 2 2 2 2 2 2 2 2 2 3 5 6 7 7 7 6 6 8 13 24 30 25 16 10 10 8 14 12 14
6 5 5 4 4 3 3 3 2 2 2 2 2 2 2 2 2 2 1 1 2 2 1 1 1 1 1 1 1 1 2 3 4 5 7 6 10 22 31 33 13 9 9 14 12
6 6 5 5 4 4 4 4 4 3 3 3 3 3 2 2 2 2 2 2 2 2 2 2 2 1 1 1 1 1 1 1 1 1 1 2 6 7 8 31 41 28 22 12 9
8 7 7 6 6 6 5 5 5 5 4 4 4 3 2 2 2 2 2 2 2 3 2 2 2 2 2 2 2 2 2 2 2 1 1 1 1 1 4 6 36 48 49 44 20
8 8 8 8 7 7 6 6 6 5 5 4 4 4 4 3 3 3 3 3 3 3 3 3 2 3 3 2 2 2 2 2 2 2 1 1 1 1 1 1 4 18 38 51 50
10 10 10 10 9 9 8 7 7 6 6 5 5 4 4 4 4 4 4 4 4 4 4 4 4 4 3 3 3 2 2 2 2 1 1 1 1 1 1 1 1 1 5 12 53
13 13 12 11 10 10 8 7 6 6 6 6 6 6 6 5 5 6 5 6 6 5 5 5 4 4 4 3 2 2 2 2 1 1 1 1 1 1 1 1 1 1 1 2 7
13 11 9 8 8 8 7 7 7 6 5 5 5 5 5 5 5 6 7 7 6 6 6 5 4 4 3 2 2 2 2 2 2 2 1 1 1 1 1 1 1 1 1 1 2
11 10 10 10 10 10 10 11 10 9 8 8 8 8 7 6 6 6 8 8 7 7 6 5 4 3 3 3 2 2 2 2 2 2 1 1 1 2 2 2 1 1 2 2 1
12 12 12 12 12 13 14 14 14 11 10 10 9 9 8 8 8 9 9 8 7 6 6 5 4 3 4 4 3 3 3 3 3 2 6 9 20 26 39 28 9 6 4 4 4
15 14 15 15 14 15 16 16 17 14 12 11 10 9 9 8 8 8 8 7 8 8 6 5 4 4 4 4 4 4 4 4 4 4 5 25 57 63 92 79 75 31 31 22 7
19 18 18 19 19 18 17 16 18 18 16 15 13 11 11 10 9 8 8 9 8 8 7 6 6 5 5 4 5 5 5 5 5 5 7 22 54 60 89 86 96 77 75 51 22
23 23 21 21 22 22 20 18 18 20 20 18 16 14 13 12 11 10 9 10 10 9 8 8 7 6 6 5 6 6 6 6 7 6 7 31 40 63 84 99 99 100 100 100 98
25 24 23 22 22 21 21 19 20 23 23 22 20 19 16 13 13 13 12 12 10 10 10 9 8 8 8 7 7 7 6 7 8 8 9 9 23 49 66 63 77 83 93 96 100
26 25 29 26 23 23 23 22 26 25 23 23 22 22 21 19 19 19 16 13 13 12 12 11 11 11 11 10 10 9 8 9 10 11 11 10 10 19 39 49 55 47 59 83 99
32 29 34 29 24 25 27 25 26 22 21 22 26 26 23 22 22 21 21 19 17 15 14 13 13 13 13 11 12 11 9 10 9 12 14 12 14 14 16 29 36 44 47 59 70
37 38 33 31 27 28 31 30 27 20 18 18 25 24 21 21 24 25 25 23 23 23 19 16 16 16 15 14 14 13 12 11 11 12 12 17 10 16 15 14 20 37 46 47 52
40 40 37 30 26 31 31 31 28 20 17 13 15 22 19 18 22 22 20 18 15 16 23 25 22 19 17 17 16 16 15 14 13 14 14 16 16 12 13 15 19 16 18 40 41
44 41 40 33 29 28 24 25 25 20 16 13 12 10 12 14 16 18 16 16 19 22 24 20 26 25 20 19 17 18 17 16 15 16 16 17 18 16 13 11 13 16 20 16 15
48 43 41 34 30 28 26 25 22 22 15 13 12 10 10 10 10 11 12 16 22 26 29 30 18 26 25 21 19 18 20 17 14 13 15 16 19 18 16 13 14 14 15 16 18

GFSSW_500_rhum_249.txt.gz
RH
7 23 38 31 35 41 46 48 49 52 56 46 25 37 47 63 67 67 94 88 61 52 47 26 7 6 6 6 7 8 10 12 12 13 16 22 24 29 33 30 40 36 27 22 27
7 14 22 27 30 39 47 48 46 47 48 56 57 54 49 46 56 60 65 87 75 64 54 45 23 8 6 6 5 6 6 9 11 12 13 14 18 24 26 32 42 37 34 26 21
9 15 14 13 18 32 47 52 47 42 39 38 43 48 48 57 57 56 55 55 76 65 58 55 50 34 20 15 9 6 6 6 7 9 11 12 13 15 21 28 28 32 33 31 26
17 18 14 9 10 17 30 40 45 44 43 39 36 36 34 35 37 40 37 41 56 65 59 49 41 40 47 46 39 32 18 8 6 6 8 9 10 12 14 22 29 18 19 27 29
24 20 14 8 8 10 14 15 19 23 26 27 26 23 20 21 23 20 19 18 22 30 52 54 52 44 49 48 47 48 48 28 13 6 6 7 7 7 10 12 14 15 19 20 22
24 21 15 9 8 7 9 8 8 8 8 8 8 9 8 11 11 13 11 11 12 11 12 19 25 38 43 46 43 44 46 42 26 21 11 6 8 8 10 8 9 12 15 21 25
23 20 17 14 11 10 8 7 7 7 7 6 6 6 7 7 6 6 6 5 5 6 5 6 8 9 10 25 34 36 33 35 45 43 34 28 23 14 12 14 19 11 10 17 21
19 18 16 14 12 10 10 9 8 7 7 7 7 7 7 6 6 6 6 7 7 7 7 6 6 6 6 6 6 6 8 11 14 31 41 40 39 39 27 26 21 23 29 11 10
11 12 12 12 11 10 9 8 8 7 6 6 5 5 4 4 4 4 3 2 3 4 3 3 3 3 3 3 3 3 5 6 5 6 7 9 12 19 30 32 37 34 37 44 17
8 8 7 7 6 6 6 5 5 4 4 3 3 3 4 3 3 2 2 2 2 2 1 1 1 2 2 2 1 1 1 1 1 1 2 2 3 4 6 7 16 36 40 43 55
7 6 6 5 5 4 4 3 3 3 3 3 3 3 4 3 2 2 2 2 2 2 2 2 2 2 2 2 2 2 2 2 1 1 1 1 1 1 1 2 6 7 21 27 41
9 8 8 8 7 6 6 5 5 4 4 4 3 3 3 3 2 2 2 2 2 2 2 2 2 2 3 2 2 2 2 2 2 2 1 1 1 1 1 1 1 2 5 7 8
10 9 9 9 8 8 7 7 6 6 5 5 4 4 4 4 4 3 3 3 3 3 3 3 3 3 3 3 3 3 3 3 2 2 2 2 1 1 1 1 1 1 1 1 4
12 11 11 11 10 9 9 8 8 8 7 6 6 5 5 4 4 4 4 4 4 4 4 4 4 4 4 4 4 4 3 2 2 1 1 1 1 1 1 1 1 1 1 1 1
14 14 14 14 13 12 11 10 10 9 7 6 6 6 7 6 6 6 5 5 5 5 5 5 5 5 5 5 4 3 2 2 2 2 1 1 1 1 1 1 1 1 1 1 1
16 16 15 14 13 11 9 8 7 6 6 6 5 5 5 6 6 5 5 5 5 5 5 5 6 6 5 4 3 3 2 2 2 2 2 2 1 1 1 1 1 1 1 2 1
18 17 14 11 10 9 9 9 9 8 8 8 8 7 7 7 7 6 5 5 5 5 5 6 6 6 5 4 3 2 2 3 3 3 2 2 2 2 2 2 8 16 17 14 10
19 16 14 12 11 10 11 11 12 11 11 10 9 8 8 8 7 7 6 6 6 6 6 5 5 5 5 5 4 3 4 4 3 3 3 3 2 2 2 10 33 53 86 82 73
21 17 16 14 12 12 12 12 14 15 14 12 10 10 10 10 9 8 7 7 6 6 6 6 5 5 6 5 4 4 5 5 4 4 4 4 4 3 3 8 33 56 73 72 93
22 19 18 17 15 14 14 15 16 17 18 16 13 12 12 11 11 10 9 8 7 7 7 7 7 7 6 6 6 5 6 6 5 5 5 5 5 4 4 6 26 49 72 89 81
23 23 22 20 18 17 17 18 20 17 18 20 19 17 15 13 12 12 11 10 9 8 8 7 8 8 8 8 8 8 8 7 7 6 6 6 6 6 4 5 6 25 43 48 53
24 25 28 25 23 21 22 22 21 20 20 23 23 22 20 18 15 16 16 14 12 11 10 10 9 10 9 9 10 10 9 9 8 8 6 8 7 7 6 5 6 7 11 31 36
25 26 29 28 25 24 23 24 24 22 22 26 24 22 23 23 21 21 20 20 18 17 16 14 13 13 12 12 12 12 12 11 10 10 8 8 9 8 8 7 6 6 8 9 11
29 29 28 30 28 28 28 26 25 23 26 26 22 24 26 24 22 23 24 23 22 19 17 18 19 20 20 18 15 12 12 13 13 11 10 9 10 9 9 10 10 8 7 8 9
35 28 29 30 30 31 33 29 29 27 28 26 21 23 26 23 20 22 24 21 17 16 19 22 24 25 25 23 22 17 13 14 14 12 11 11 11 10 11 12 12 11 9 8 8
41 33 33 34 41 40 36 31 35 37 35 29 22 18 16 22 20 17 20 19 15 16 20 18 22 24 25 26 24 24 18 16 16 14 12 13 13 11 12 12 12 11 11 10 8
49 38 39 44 44 43 40 36 38 41 40 34 22 17 13 13 13 13 12 12 10 10 11 12 16 23 27 29 25 27 25 21 19 17 17 16 14 13 12 12 11 10 11 10 10

GFSSW_500_rhum_252.txt.gz
RH
4 3 3 18 44 40 41 45 41 46 45 33 22 24 65 84 85 88 74 72 65 61 45 10 6 6 6 8 8 10 11 13 14 14 16 20 24 31 33 34 26 28 39 33 28
5 4 4 6 39 29 39 46 46 45 43 35 24 20 39 63 76 76 74 68 68 69 67 50 34 21 8 6 6 7 8 9 11 12 13 14 17 23 23 23 22 18 26 28 21
7 5 5 5 20 20 27 43 48 49 51 48 50 51 33 32 48 56 62 61 76 91 86 64 57 46 37 20 7 6 6 6 7 9 10 11 13 14 15 18 22 24 23 24 19
9 8 6 6 14 16 13 32 48 49 47 43 45 46 53 55 55 53 54 59 58 87 87 72 64 57 49 47 32 12 7 6 6 6 7 9 9 11 12 13 14 16 23 26 21
11 10 11 15 15 13 10 17 37 48 49 44 41 39 38 44 44 46 51 55 53 52 74 72 64 57 54 53 48 44 31 23 14 7 8 8 8 8 9 10 10 12 17 25 24
12 14 24 20 14 10 9 11 20 34 42 43 42 40 37 34 29 28 30 31 33 31 41 68 68 60 50 42 42 45 52 51 46 42 33 14 12 11 13 8 8 9 10 13 15
14 20 24 15 10 8 8 9 10 14 17 15 16 19 24 20 17 15 15 14 14 14 13 18 26 53 52 49 45 43 38 40 44 47 49 41 27 16 23 27 29 21 16 10 9
18 24 23 19 13 10 8 8 8 8 8 8 7 7 8 9 7 8 9 8 8 7 7 7 8 10 14 19 22 22 26 27 31 41 39 45 41 30 27 39 43 53 50 35 21
16 20 21 20 18 16 12 11 9 8 8 7 7 7 6 7 6 6 6 6 6 6 6 6 6 6 6 6 6 6 6 7 8 11 10 9 21 37 35 37 46 48 50 58 56
10 13 16 16 15 13 12 11 10 9 8 8 7 6 6 6 5 4 5 5 5 4 4 4 4 4 4 4 4 3 2 3 3 4 4 4 6 7 12 25 30 33 30 27 38
7 8 9 10 10 10 9 8 7 6 6 6 6 5 5 4 4 4 3 2 2 2 2 2 2 2 2 2 2 2 2 2 1 1 1 1 1 1 2 4 5 7 8 10 10
9 7 7 7 6 6 6 6 5 6 4 4 3 4 3 4 4 3 3 3 2 2 2 2 2 2 2 2 2 2 2 2 2 2 2 2 2 2 1 1 1 1 1 2 4
10 10 9 9 8 8 7 6 5 5 5 4 3 4 4 3 3 3 2 2 2 2 2 2 2 2 2 3 2 2 3 3 2 2 2 2 2 2 2 2 1 1 1 1 1
13 12 11 10 10 10 10 9 8 7 6 5 5 4 4 4 3 3 2 2 3 3 3 3 3 3 3 3 3 4 3 3 3 2 2 2 2 1 1 1 1 1 1 1 1
13 14 14 12 13 12 12 11 9 8 7 6 6 6 5 4 4 4 4 4 4 4 3 4 4 4 4 4 4 4 4 3 3 2 2 2 2 1 1 1 1 1 1 1 1
13 15 16 15 15 16 15 14 12 10 9 7 7 7 7 7 6 5 5 4 4 4 4 5 5 5 5 5 5 5 4 3 2 2 2 2 2 2 1 1 1 1 1 1 1
16 15 18 19 17 18 16 14 12 10 9 8 7 6 6 6 6 6 5 5 5 5 5 5 5 6 6 6 5 4 3 3 3 3 2 2 2 2 2 1 1 1 1 1 1
21 17 18 20 20 18 15 13 11 10 8 9 9 8 8 7 6 6 6 6 5 5 6 6 6 6 5 5 5 4 3 3 4 4 3 3 2 2 2 2 2 2 1 1 2
25 22 20 20 20 19 16 12 11 11 11 12 11 10 9 8 7 7 6 6 7 7 7 6 6 5 5 5 5 5 4 4 5 4 4 4 3 3 3 3 2 2 2 2 2
31 26 23 21 20 19 16 13 12 14 15 14 13 11 10 9 8 8 7 6 6 6 6 6 6 6 6 6 6 6 5 6 6 5 5 4 4 4 4 4 3 3 3 3 3
31 32 26 23 20 18 15 14 15 16 18 17 15 13 12 10 9 9 8 8 7 6 6 6 6 7 6 6 7 7 8 8 7 7 6 6 5 5 5 5 5 5 5 5 5
28 36 32 26 22 16 16 15 15 16 19 20 20 17 15 13 12 10 10 9 9 8 8 8 8 8 8 8 8 8 8 9 9 8 9 8 7 6 5 5 5 5 5 5 6
31 35 42 28 22 18 18 19 19 18 20 19 21 21 20 17 14 12 12 12 11 10 11 11 11 12 13 12 11 11 10 10 10 10 10 10 8 7 7 6 6 6 6 6 6
38 41 43 33 25 23 20 22 24 23 23 23 21 24 23 20 18 16 16 18 18 17 17 17 17 17 19 20 19 18 17 15 12 11 11 11 10 9 8 7 7 7 7 6 6
45 36 47 37 26 26 30 25 27 26 25 24 22 26 26 23 23 22 21 21 21 20 17 17 20 22 22 22 22 21 20 20 19 15 13 12 11 12 11 9 8 8 8 8 7
53 39 44 42 36 31 38 28 30 26 27 26 25 29 24 24 26 22 23 24 22 17 18 21 18 15 17 22 23 22 20 20 21 21 17 14 15 16 14 11 10 10 10 9 9
43 43 44 50 48 34 28 36 33 34 32 32 34 38 28 24 26 22 20 22 21 15 15 14 10 7 11 15 22 23 24 22 21 25 24 19 18 18 16 14 13 12 12 12 12

GFSSW_500_rhum_258.txt.gz
RH
3 3 2 2 2 2 2 1 2 32 40 39 46 76 95 91 95 79 67 66 50 40 16 10 9 10 11 13 15 17 18 21 26 30 27 20 14 24 21 18 36 40 39 37 45
3 3 2 2 2 2 2 2 2 5 40 41 40 41 84 93 92 88 77 73 66 71 54 38 12 9 8 9 11 13 14 16 23 22 25 18 16 19 20 11 18 34 38 37 37
4 3 2 2 2 2 2 2 2 2 19 44 45 38 62 88 84 64 77 48 65 71 76 58 46 58 14 7 8 9 10 13 15 18 17 17 14 15 16 14 17 21 31 30 32
4 3 3 3 3 3 3 3 3 2 3 36 45 49 37 70 72 61 35 39 84 86 88 70 62 70 64 10 7 7 8 9 11 12 12 13 12 13 13 13 14 16 19 21 21
5 3 4 5 5 5 5 5 4 3 3 21 42 52 44 39 45 49 37 35 69 100 86 82 75 85 77 58 16 14 7 7 7 7 8 8 8 9 10 11 11 12 13 14 15
5 5 6 6 6 8 8 7 6 4 4 11 37 49 53 43 38 38 35 42 55 74 77 72 67 80 81 73 68 49 26 24 16 14 11 9 7 7 8 9 9 9 10 11 11
7 7 9 9 9 9 9 10 8 7 8 12 31 41 59 44 41 43 36 45 46 50 47 62 65 65 87 79 74 72 63 57 58 58 54 30 24 15 11 12 19 12 8 8 7
8 8 11 11 15 15 19 18 14 11 11 18 28 35 56 47 50 48 44 48 52 59 54 55 65 66 58 75 95 78 70 58 54 51 53 63 56 57 55 48 39 30 26 23 18
9 7 11 17 26 25 17 12 10 10 12 18 24 34 50 54 46 42 39 38 42 44 54 40 44 42 34 41 60 89 75 78 68 56 72 64 59 67 68 60 49 49 52 50 45
10 9 8 22 25 26 24 21 19 13 11 12 27 32 41 41 41 38 34 30 30 24 19 18 16 10 22 12 29 44 50 23 37 33 22 44 40 25 21 25 31 38 24 25 32
11 11 8 10 21 20 21 22 20 17 15 15 33 16 19 21 24 25 21 19 17 14 10 7 6 7 6 7 4 6 7 5 13 9 8 7 8 7 8 7 6 8 8 7 6
17 11 11 8 11 14 14 15 14 14 13 14 22 12 10 11 10 11 10 10 8 6 6 6 5 8 7 5 4 4 6 6 5 3 4 3 3 3 3 3 3 3 3 3 2
28 16 12 11 8 9 10 11 11 11 11 11 11 14 9 9 9 7 6 6 5 5 4 4 6 4 3 3 3 3 4 3 2 2 2 2 2 2 2 2 2 2 1 1 1
18 32 16 12 11 9 8 8 9 9 9 9 9 9 8 7 6 6 5 5 4 4 4 7 3 3 3 2 2 2 2 2 2 3 2 3 2 2 2 2 2 2 2 2 1
31 20 29 15 14 12 11 10 8 8 11 11 8 9 7 6 8 6 5 5 4 4 3 3 3 2 3 2 2 2 2 3 4 4 3 4 4 2 2 2 2 2 2 1 1
11 29 22 25 15 16 14 12 13 10 9 10 10 9 8 7 5 8 5 5 5 4 3 4 3 2 2 3 3 4 4 4 4 4 4 6 6 4 4 2 2 2 2 2 1
12 12 34 24 22 18 19 15 14 9 10 9 9 9 8 7 6 5 6 5 4 4 3 3 4 4 4 4 4 4 4 5 5 4 7 9 23 3 2 3 2 2 2 2 2
7 11 13 36 28 21 21 19 11 10 13 12 11 10 9 8 7 6 6 6 5 5 4 4 4 4 4 4 5 5 5 6 6 8 6 11 27 4 2 3 3 3 2 2 2
9 10 13 30 33 30 22 18 11 12 18 17 16 12 11 9 8 8 8 8 6 7 6 6 5 5 5 5 5 5 5 5 4 41 36 33 16 4 3 3 3 3 3 3 3
11 12 13 13 45 36 29 18 14 18 20 18 16 15 13 10 9 9 9 9 8 8 7 8 4 6 6 7 6 5 5 6 5 8 26 27 5 4 4 4 4 4 3 3 3
12 15 13 12 33 42 34 27 19 23 20 19 18 16 14 10 10 9 9 8 7 8 8 7 6 7 6 6 7 6 6 6 5 4 5 49 54 3 4 5 5 4 5 5 5
16 16 14 11 19 40 38 38 25 25 23 22 18 16 14 13 12 11 10 8 8 8 7 6 6 6 9 7 6 5 5 5 6 5 6 8 8 6 8 6 6 6 6 6 6
13 12 13 12 10 18 41 38 35 29 25 24 20 18 18 17 13 12 12 8 10 10 9 8 7 8 7 8 6 6 6 6 6 6 6 8 6 7 6 7 7 7 8 8 8
7 8 8 10 10 12 38 44 43 35 29 27 23 25 21 21 16 14 11 11 11 10 8 9 8 7 7 7 6 6 6 7 7 7 8 8 7 7 8 9 10 9 9 9 9
7 5 6 6 10 8 25 47 46 41 31 35 26 25 23 24 19 16 13 13 12 10 10 9 9 8 7 6 7 8 8 8 8 10 12 13 12 12 13 13 12 11 10 11 11
5 4 4 5 6 7 8 34 50 49 39 34 28 29 27 26 24 22 17 17 15 14 12 11 10 9 9 10 10 11 13 15 16 16 16 17 18 16 14 14 16 15 14 14 14
4 4 3 4 5 7 7 19 46 65 48 40 39 38 32 33 33 32 28 29 22 19 17 15 12 12 12 13 16 16 18 20 20 20 20 20 20 17 16 15 16 18 19 18 18

GFSSW_500_rhum_264.txt.gz
RH
21 5 3 2 2 2 2 2 2 1 1 1 1 2 14 20 34 44 52 78 52 47 14 8 12 15 17 19 20 22 23 46 54 63 59 60 79 76 59 46 42 38 41 40 38
14 18 5 3 3 2 2 2 2 2 1 1 1 1 3 18 24 35 43 66 70 50 33 9 11 13 15 17 18 21 23 24 50 56 70 48 51 41 42 33 29 23 23 19 19
26 28 17 21 4 3 2 2 2 2 2 2 1 1 1 6 18 29 39 55 81 72 50 33 12 12 12 14 15 17 19 22 26 42 63 48 32 34 31 29 25 22 26 22 20
31 32 27 9 6 3 3 2 2 2 2 2 1 1 1 1 10 24 33 42 82 90 65 68 48 42 17 11 12 14 15 18 22 24 43 41 30 26 21 24 23 19 17 18 20
17 29 10 7 5 4 4 3 2 2 2 2 1 1 1 1 3 23 36 37 57 84 95 65 58 80 76 28 10 11 11 12 17 19 26 33 32 23 20 18 19 17 14 14 14
20 30 12 6 6 4 3 3 2 2 2 1 1 1 1 1 1 8 40 38 41 82 93 91 72 66 96 65 24 18 10 10 11 14 17 20 22 25 20 18 17 15 11 11 11
7 24 35 7 6 4 3 3 2 2 2 2 1 1 1 2 2 5 40 44 38 62 92 94 52 56 77 90 76 59 41 20 9 10 11 12 13 13 14 12 12 10 8 7 7
8 8 29 27 7 5 4 4 3 3 3 3 3 2 2 2 2 4 32 46 40 48 87 96 63 79 97 87 79 70 80 82 20 9 10 9 10 9 8 8 7 7 11 12 9
9 8 11 26 20 7 5 5 5 5 4 5 5 4 4 3 3 4 33 50 45 41 85 95 80 88 97 88 85 77 77 82 69 44 32 18 11 9 12 18 25 33 47 44 45
10 9 8 13 30 11 6 7 7 11 10 6 6 6 5 5 4 8 48 51 49 44 68 90 82 87 96 78 68 84 97 90 87 79 72 68 57 41 43 44 50 53 58 56 62
11 10 9 9 16 32 8 6 12 17 16 13 11 11 8 7 7 13 57 55 54 47 56 86 83 67 81 87 69 69 74 78 92 74 87 83 86 67 67 58 55 55 52 60 60
10 10 10 8 10 16 23 8 11 17 19 18 14 11 11 12 16 27 71 63 61 54 59 77 73 77 89 93 88 94 87 76 86 80 92 85 81 75 60 67 66 64 47 13 9
13 10 10 7 8 9 30 12 8 14 18 17 16 15 11 16 26 44 69 74 74 67 58 71 77 74 74 94 80 51 76 52 51 50 52 84 89 70 60 49 32 15 8 5 3
14 10 9 8 8 9 17 27 11 8 12 13 14 14 13 16 23 37 46 58 61 51 54 54 55 56 71 77 90 87 61 48 37 25 22 21 14 11 8 6 5 4 3 3 2
18 12 9 8 8 8 16 16 26 11 8 11 13 12 13 14 14 12 15 20 19 15 29 41 21 19 17 33 16 24 21 31 38 28 21 15 23 21 10 6 4 3 2 2 2
23 15 12 10 9 8 14 14 20 22 11 7 12 14 12 12 14 11 10 10 9 9 13 20 11 6 7 5 15 7 6 14 24 39 39 30 17 8 7 3 2 2 2 2 2
33 20 15 12 9 9 10 14 18 15 19 13 8 11 14 14 14 24 9 8 8 9 7 7 6 6 5 5 5 8 15 19 48 40 30 20 6 7 6 14 6 3 2 2 2
40 24 18 14 11 9 9 11 9 10 21 21 12 10 10 14 15 36 40 8 7 7 7 6 6 5 5 5 5 9 14 6 11 30 20 10 19 23 18 9 3 2 2 2 2
34 42 25 20 24 19 14 9 7 12 26 29 22 12 12 12 14 15 42 23 9 8 7 7 6 6 5 7 8 11 22 17 12 20 30 21 10 8 6 3 2 4 5 3 2
38 50 48 36 25 27 25 22 12 10 34 35 29 21 13 14 15 14 14 28 18 11 8 7 8 9 7 6 7 7 10 6 6 7 6 5 4 3 2 3 7 9 5 2 2
34 49 53 48 41 35 32 26 23 13 28 44 37 28 18 15 22 15 14 13 11 12 20 10 10 30 23 9 6 7 9 16 15 9 5 4 2 2 3 4 5 8 5 4 3
28 45 43 49 53 42 33 24 19 14 16 28 40 39 29 22 17 21 13 16 15 12 9 10 10 15 30 18 8 6 7 7 7 6 5 4 4 3 4 6 6 5 6 5 4
18 37 42 40 35 39 34 28 33 18 13 15 32 48 37 26 21 22 19 18 18 16 13 11 9 8 8 9 6 6 6 6 6 8 6 6 5 5 10 11 6 5 7 7 7
20 28 37 37 37 32 24 19 15 15 14 13 14 49 48 38 35 27 24 18 16 17 19 17 12 9 7 7 11 7 6 7 7 7 6 6 5 5 6 7 4 4 5 6 6
28 26 32 30 28 27 25 21 13 12 11 14 12 30 62 52 56 41 33 22 22 17 18 21 14 13 12 12 10 13 19 13 7 7 7 6 6 5 6 6 6 6 6 6 7
38 30 24 22 20 20 22 22 19 16 12 13 12 17 56 50 44 54 54 36 28 32 21 19 20 16 12 11 12 11 13 16 12 9 8 8 7 6 6 6 5 7 9 10 10
38 28 20 17 16 16 17 18 19 17 15 12 13 13 23 51 62 54 62 56 43 48 50 28 34 25 15 13 11 12 8 9 9 9 9 7 6 5 5 6 8 11 14 11 11

GFSSW_500_rhum_267.txt.gz
RH
17 17 21 24 14 3 2 2 2 2 1 1 1 1 1 1 3 32 44 60 72 65 38 9 10 15 16 18 20 22 24 26 41 44 49 49 43 40 67 76 66 53 45 40 46
19 19 18 19 18 6 3 2 2 2 2 2 1 1 1 1 1 7 35 46 54 69 58 25 10 13 16 18 19 21 23 24 27 47 50 56 53 43 35 59 48 37 31 39 48
9 16 24 20 20 20 18 3 3 2 2 2 2 1 1 1 1 1 14 35 42 52 69 60 23 13 14 16 18 20 21 23 26 46 50 56 58 46 41 25 32 30 23 29 32
2 5 9 30 29 22 20 16 5 3 2 2 2 2 2 1 1 2 2 19 35 42 76 60 58 41 18 14 15 17 19 21 24 28 51 52 58 62 38 25 26 28 23 22 18
4 3 4 13 26 14 15 17 9 4 3 2 2 2 2 1 1 1 2 4 27 38 47 86 70 94 53 32 14 12 17 17 18 21 24 36 50 58 54 32 23 23 24 20 15
7 6 4 4 19 17 6 5 7 7 4 3 2 2 2 2 1 1 1 4 15 36 40 90 93 96 88 88 36 25 12 13 12 17 20 22 25 39 47 37 27 22 21 16 13
7 7 7 6 4 24 8 5 4 3 3 3 3 3 4 2 2 1 1 2 15 32 40 58 94 94 96 91 98 85 26 12 12 12 15 18 20 22 28 29 25 24 19 14 11
9 8 7 7 6 4 26 6 5 3 2 2 2 2 2 3 2 2 2 2 4 36 39 48 83 96 97 89 77 100 92 69 20 11 11 13 15 17 17 20 19 17 14 10 7
18 12 8 8 6 5 6 24 6 4 3 3 3 2 2 2 2 2 2 2 2 24 42 45 100 97 96 84 81 96 85 62 70 42 17 10 10 12 12 12 13 11 9 8 10
23 19 16 9 8 6 6 12 17 5 4 4 4 3 3 4 4 3 3 3 5 19 46 43 92 96 87 88 62 75 100 94 79 71 62 56 19 10 10 11 10 11 16 31 48
17 24 22 17 9 8 6 6 18 9 6 9 11 7 7 6 7 6 4 4 14 20 50 47 71 76 54 77 76 89 82 92 94 85 87 83 75 42 26 27 36 48 53 54 54
11 17 24 20 12 8 7 6 10 18 7 8 12 14 9 9 8 8 7 6 24 44 55 53 44 81 93 90 93 95 97 89 95 91 95 87 81 70 61 52 48 62 68 69 62
10 11 19 23 15 9 7 6 6 10 18 8 14 18 15 12 10 10 8 10 40 58 56 54 53 78 87 94 96 90 91 88 86 82 87 89 77 73 70 71 73 76 63 71 74
14 14 14 23 17 11 9 7 6 6 14 11 8 14 14 15 12 13 13 11 41 78 64 56 60 74 79 92 94 92 95 96 84 83 72 80 78 76 76 74 70 75 76 73 56
16 14 15 20 26 12 9 8 8 7 9 14 10 8 14 13 14 14 18 22 31 91 92 65 71 70 70 77 84 88 98 60 81 96 96 88 58 55 49 55 33 25 11 5 5
15 15 13 19 30 20 11 10 8 9 8 13 16 9 13 14 13 14 15 25 36 68 91 74 63 60 59 92 94 56 94 97 41 75 86 70 58 48 42 29 14 5 3 2 2
15 14 13 17 28 30 16 12 11 10 12 12 17 18 10 13 16 13 12 13 18 42 69 64 32 42 23 76 72 65 97 95 90 74 49 54 60 43 34 24 10 5 3 3 3
16 14 14 17 24 39 23 15 13 11 10 14 18 22 15 12 13 19 14 13 18 36 16 36 31 22 16 32 42 49 60 51 45 46 35 37 34 34 38 28 12 4 3 3 3
16 14 14 17 23 38 38 22 14 11 9 13 20 22 24 16 14 15 19 31 13 10 30 14 10 11 10 8 11 10 13 36 16 14 22 26 38 39 27 15 8 8 8 5 4
20 17 17 19 21 31 42 41 22 20 15 11 16 22 24 25 16 15 15 18 35 25 19 13 9 8 12 10 7 12 14 12 22 19 19 20 20 38 32 27 22 10 6 5 4
22 22 20 22 23 31 42 47 42 26 25 22 12 16 23 27 26 20 14 16 21 65 20 11 10 11 13 16 10 9 12 14 24 20 17 16 24 31 25 13 5 5 4 4 6
25 27 24 24 26 29 42 51 47 35 30 26 20 13 27 34 29 23 17 15 22 24 90 16 12 10 13 15 17 16 25 13 20 20 32 15 9 9 9 6 4 5 4 6 7
22 25 22 27 27 31 36 45 50 43 29 29 23 15 16 35 33 30 22 23 25 28 26 63 20 12 12 18 20 13 12 21 17 17 11 14 28 20 9 4 4 5 4 8 5
10 17 18 27 32 32 34 43 41 45 36 23 20 17 14 20 36 33 31 24 26 29 33 32 45 53 24 16 27 21 12 13 15 14 20 42 25 8 5 4 5 5 6 6 6
11 11 25 32 40 37 35 38 39 32 33 26 22 19 16 14 34 41 48 33 25 38 37 40 22 23 47 30 26 50 33 22 52 40 21 14 8 6 4 5 5 6 7 6 4
16 22 27 46 49 44 37 31 30 31 29 21 20 19 17 14 16 51 41 43 33 34 48 45 33 27 35 22 21 22 29 21 12 9 8 6 6 5 6 6 6 7 5 4 6
40 40 36 44 49 46 35 29 25 24 25 26 18 16 16 15 15 18 50 54 41 31 34 40 51 45 27 32 27 26 11 12 18 13 7 6 6 7 7 6 7 6 5 6 8